Time,TemperatureF,DewpointF,PressureIn,WindDirection,WindDirectionDegrees,WindSpeedMPH,WindSpeedGustMPH,Humidity,HourlyPrecipIn,Conditions,Clouds,dailyrainin,SolarRadiationWatts/m^2,SoftwareType,DateUTC
2013-06-16 00:01:00,62.0,48.0,-100.00,WNW,301,7.0,16.0,61,0.00,,,0.00,0.000000,,2013-06-16 07:01:00,
2013-06-16 00:11:00,62.0,48.0,-100.00,WNW,301,7.0,16.0,61,0.00,,,0.00,0.000000,,2013-06-16 07:11:00,
2013-06-16 00:43:00,61.0,49.0,-100.00,WNW,296,7.0,14.0,64,0.00,,,0.00,0.000000,,2013-06-16 07:43:00,
2013-06-16 00:53:00,61.0,49.0,-100.00,WNW,296,7.0,14.0,64,0.00,,,0.00,0.000000,,2013-06-16 07:53:00,
2013-06-16 01:02:00,61.0,49.0,-100.00,WNW,296,7.0,14.0,64,0.00,,,0.00,0.000000,,2013-06-16 08:02:00,
2013-06-16 01:11:00,61.0,49.0,-100.00,WNW,296,7.0,14.0,64,0.00,,,0.00,0.000000,,2013-06-16 08:11:00,
2013-06-16 01:34:00,60.0,49.0,-100.00,WNW,300,8.0,14.0,68,0.00,,,0.00,0.000000,,2013-06-16 08:34:00,
2013-06-16 01:43:00,60.0,49.0,-100.00,WNW,300,8.0,14.0,68,0.00,,,0.00,0.000000,,2013-06-16 08:43:00,
2013-06-16 01:54:00,60.0,49.0,-100.00,WNW,300,8.0,14.0,68,0.00,,,0.00,0.000000,,2013-06-16 08:54:00,
2013-06-16 02:01:00,60.0,49.0,-100.00,WNW,300,8.0,14.0,68,0.00,,,0.00,0.000000,,2013-06-16 09:01:00,
2013-06-16 02:11:00,60.0,49.0,-100.00,WNW,300,8.0,14.0,68,0.00,,,0.00,0.000000,,2013-06-16 09:11:00,
2013-06-16 02:33:00,59.0,50.0,-100.00,NW,307,5.0,15.0,71,0.00,,,0.00,0.000000,,2013-06-16 09:33:00,
2013-06-16 02:43:00,59.0,50.0,-100.00,NW,307,5.0,15.0,71,0.00,,,0.00,0.000000,,2013-06-16 09:43:00,
2013-06-16 02:52:00,59.0,50.0,-100.00,NW,307,5.0,15.0,71,0.00,,,0.00,0.000000,,2013-06-16 09:52:00,
2013-06-16 03:01:00,59.0,50.0,-100.00,NW,307,5.0,15.0,71,0.00,,,0.00,0.000000,,2013-06-16 10:01:00,
2013-06-16 03:12:00,59.0,50.0,-100.00,NW,307,5.0,15.0,71,0.00,,,0.00,0.000000,,2013-06-16 10:12:00,
2013-06-16 03:33:00,57.0,50.0,-100.00,NW,311,5.0,10.0,76,0.00,,,0.00,0.000000,,2013-06-16 10:33:00,
2013-06-16 03:43:00,57.0,50.0,-100.00,NW,311,5.0,10.0,76,0.00,,,0.00,0.000000,,2013-06-16 10:43:00,
2013-06-16 03:53:00,57.0,50.0,-100.00,NW,311,5.0,10.0,76,0.00,,,0.00,0.000000,,2013-06-16 10:53:00,
2013-06-16 04:02:00,57.0,50.0,-100.00,NW,311,5.0,10.0,76,0.00,,,0.00,0.000000,,2013-06-16 11:02:00,
2013-06-16 04:11:00,57.0,50.0,-100.00,NW,311,5.0,10.0,76,0.00,,,0.00,0.000000,,2013-06-16 11:11:00,
2013-06-16 04:43:00,55.0,49.0,-100.00,NW,306,5.0,12.0,79,0.00,,,0.00,0.000000,,2013-06-16 11:43:00,
2013-06-16 04:53:00,55.0,49.0,-100.00,NW,306,5.0,12.0,79,0.00,,,0.00,0.000000,,2013-06-16 11:53:00,
2013-06-16 05:01:00,55.0,49.0,-100.00,NW,306,5.0,12.0,79,0.00,,,0.00,0.000000,,2013-06-16 12:01:00,
2013-06-16 05:11:00,55.0,49.0,-100.00,NW,306,5.0,12.0,79,0.00,,,0.00,0.000000,,2013-06-16 12:11:00,
2013-06-16 05:33:00,55.0,49.0,-100.00,NW,312,5.0,13.0,80,0.00,,,0.00,0.000000,,2013-06-16 12:33:00,
2013-06-16 05:43:00,55.0,49.0,-100.00,NW,312,5.0,13.0,80,0.00,,,0.00,0.000000,,2013-06-16 12:43:00,
2013-06-16 05:53:00,55.0,49.0,-100.00,NW,312,5.0,13.0,80,0.00,,,0.00,0.000000,,2013-06-16 12:53:00,
2013-06-16 06:01:00,55.0,49.0,-100.00,NW,312,5.0,13.0,80,0.00,,,0.00,0.000000,,2013-06-16 13:01:00,
2013-06-16 06:11:00,55.0,49.0,-100.00,NW,312,5.0,13.0,80,0.00,,,0.00,0.000000,,2013-06-16 13:11:00,
2013-06-16 06:34:00,56.0,50.0,-100.00,NW,308,5.0,11.0,79,0.00,,,0.00,39.000000,,2013-06-16 13:34:00,
2013-06-16 06:43:00,56.0,50.0,-100.00,NW,308,5.0,11.0,79,0.00,,,0.00,39.000000,,2013-06-16 13:43:00,
2013-06-16 06:53:00,56.0,50.0,-100.00,NW,308,5.0,11.0,79,0.00,,,0.00,39.000000,,2013-06-16 13:53:00,
2013-06-16 07:01:00,56.0,50.0,-100.00,NW,308,5.0,11.0,79,0.00,,,0.00,39.000000,,2013-06-16 14:01:00,
2013-06-16 07:12:00,56.0,50.0,-100.00,NW,308,5.0,11.0,79,0.00,,,0.00,39.000000,,2013-06-16 14:12:00,
2013-06-16 07:34:00,59.0,51.0,-100.00,WNW,302,5.0,10.0,75,0.00,,,0.00,181.000000,,2013-06-16 14:34:00,
2013-06-16 07:44:00,59.0,51.0,-100.00,WNW,302,5.0,10.0,75,0.00,,,0.00,181.000000,,2013-06-16 14:44:00,
2013-06-16 07:52:00,59.0,51.0,-100.00,WNW,302,5.0,10.0,75,0.00,,,0.00,181.000000,,2013-06-16 14:52:00,
2013-06-16 08:02:00,59.0,51.0,-100.00,WNW,302,5.0,10.0,75,0.00,,,0.00,181.000000,,2013-06-16 15:02:00,
2013-06-16 08:12:00,59.0,51.0,-100.00,WNW,302,5.0,10.0,75,0.00,,,0.00,181.000000,,2013-06-16 15:12:00,
2013-06-16 08:43:00,61.0,52.0,-100.00,NW,314,5.0,12.0,72,0.00,,,0.00,165.000000,,2013-06-16 15:43:00,
2013-06-16 08:52:00,61.0,52.0,-100.00,NW,314,5.0,12.0,72,0.00,,,0.00,165.000000,,2013-06-16 15:52:00,
2013-06-16 09:01:00,61.0,52.0,-100.00,NW,314,5.0,12.0,72,0.00,,,0.00,165.000000,,2013-06-16 16:01:00,
2013-06-16 09:11:00,61.0,52.0,-100.00,NW,314,5.0,12.0,72,0.00,,,0.00,165.000000,,2013-06-16 16:11:00,
2013-06-16 09:33:00,60.0,52.0,-100.00,NW,315,5.0,11.0,74,0.00,,,0.00,224.000000,,2013-06-16 16:33:00,
2013-06-16 09:43:00,60.0,52.0,-100.00,NW,315,5.0,11.0,74,0.00,,,0.00,224.000000,,2013-06-16 16:43:00,
2013-06-16 09:53:00,60.0,52.0,-100.00,NW,315,5.0,11.0,74,0.00,,,0.00,224.000000,,2013-06-16 16:53:00,
2013-06-16 10:01:00,60.0,52.0,-100.00,NW,315,5.0,11.0,74,0.00,,,0.00,224.000000,,2013-06-16 17:01:00,
2013-06-16 10:11:00,60.0,52.0,-100.00,NW,315,5.0,11.0,74,0.00,,,0.00,224.000000,,2013-06-16 17:11:00,
2013-06-16 10:43:00,67.0,54.0,-100.00,NW,311,6.0,13.0,64,0.00,,,-99.99,622.000000,,2013-06-16 17:43:00,
2013-06-16 10:53:00,67.0,54.0,-100.00,NW,311,6.0,13.0,64,0.00,,,-99.99,622.000000,,2013-06-16 17:53:00,
2013-06-16 11:02:00,67.0,54.0,-100.00,NW,311,6.0,13.0,64,0.00,,,-99.99,622.000000,,2013-06-16 18:02:00,
2013-06-16 11:12:00,67.0,54.0,-100.00,NW,311,6.0,13.0,64,0.00,,,-99.99,622.000000,,2013-06-16 18:12:00,
2013-06-16 11:34:00,70.0,54.0,-100.00,NW,312,7.0,13.0,57,0.00,,,0.00,855.000000,,2013-06-16 18:34:00,
2013-06-16 11:43:00,70.0,54.0,-100.00,NW,312,7.0,13.0,57,0.00,,,0.00,855.000000,,2013-06-16 18:43:00,
2013-06-16 11:52:00,70.0,54.0,-100.00,NW,312,7.0,13.0,57,0.00,,,0.00,855.000000,,2013-06-16 18:52:00,
2013-06-16 12:01:00,70.0,54.0,-100.00,NW,312,7.0,13.0,57,0.00,,,0.00,855.000000,,2013-06-16 19:01:00,
2013-06-16 12:11:00,70.0,54.0,-100.00,NW,312,7.0,13.0,57,0.00,,,0.00,855.000000,,2013-06-16 19:11:00,
2013-06-16 12:43:00,73.0,53.0,-100.00,NW,311,7.0,14.0,50,0.00,,,0.00,934.000000,,2013-06-16 19:43:00,
2013-06-16 12:53:00,73.0,53.0,-100.00,NW,311,7.0,14.0,50,0.00,,,0.00,934.000000,,2013-06-16 19:53:00,
2013-06-16 13:01:00,73.0,53.0,-100.00,NW,311,7.0,14.0,50,0.00,,,0.00,934.000000,,2013-06-16 20:01:00,
2013-06-16 13:11:00,73.0,53.0,-100.00,NW,311,7.0,14.0,50,0.00,,,0.00,934.000000,,2013-06-16 20:11:00,
2013-06-16 13:33:00,73.0,53.0,-100.00,NW,322,7.0,13.0,50,0.00,,,0.00,1028.000000,,2013-06-16 20:33:00,
2013-06-16 13:43:00,73.0,53.0,-100.00,NW,322,7.0,13.0,50,0.00,,,0.00,1028.000000,,2013-06-16 20:43:00,
2013-06-16 13:53:00,73.0,53.0,-100.00,NW,322,7.0,13.0,50,0.00,,,0.00,1028.000000,,2013-06-16 20:53:00,
2013-06-16 14:01:00,73.0,53.0,-100.00,NW,322,7.0,13.0,50,0.00,,,0.00,1028.000000,,2013-06-16 21:01:00,
2013-06-16 14:11:00,73.0,53.0,-100.00,NW,322,7.0,13.0,50,0.00,,,0.00,1028.000000,,2013-06-16 21:11:00,
2013-06-16 14:33:00,76.0,51.0,-100.00,NW,325,8.0,16.0,41,0.00,,,0.00,1025.000000,,2013-06-16 21:33:00,
2013-06-16 14:42:00,76.0,51.0,-100.00,NW,325,8.0,16.0,41,0.00,,,0.00,1025.000000,,2013-06-16 21:42:00,
2013-06-16 14:53:00,76.0,51.0,-100.00,NW,325,8.0,16.0,41,0.00,,,0.00,1025.000000,,2013-06-16 21:53:00,
2013-06-16 15:01:00,76.0,51.0,-100.00,NW,325,8.0,16.0,41,0.00,,,0.00,1025.000000,,2013-06-16 22:01:00,
2013-06-16 15:12:00,76.0,51.0,-100.00,NW,325,8.0,16.0,41,0.00,,,0.00,1025.000000,,2013-06-16 22:12:00,
2013-06-16 15:32:00,74.0,50.0,-100.00,NW,312,8.0,15.0,43,0.00,,,0.00,834.000000,,2013-06-16 22:32:00,
2013-06-16 15:42:00,74.0,50.0,-100.00,NW,312,8.0,15.0,43,0.00,,,0.00,834.000000,,2013-06-16 22:42:00,
2013-06-16 15:52:00,74.0,50.0,-100.00,NW,312,8.0,15.0,43,0.00,,,0.00,834.000000,,2013-06-16 22:52:00,
2013-06-16 16:01:00,74.0,50.0,-100.00,NW,312,8.0,15.0,43,0.00,,,0.00,834.000000,,2013-06-16 23:01:00,
2013-06-16 16:11:00,74.0,50.0,-100.00,NW,312,8.0,15.0,43,0.00,,,0.00,834.000000,,2013-06-16 23:11:00,
2013-06-16 16:32:00,71.0,49.0,-100.00,NW,320,7.0,16.0,46,0.00,,,0.00,542.000000,,2013-06-16 23:32:00,
2013-06-16 16:42:00,71.0,49.0,-100.00,NW,320,7.0,16.0,46,0.00,,,0.00,542.000000,,2013-06-16 23:42:00,
2013-06-16 16:52:00,71.0,49.0,-100.00,NW,320,7.0,16.0,46,0.00,,,0.00,542.000000,,2013-06-16 23:52:00,
2013-06-16 17:01:00,71.0,49.0,-100.00,NW,320,7.0,16.0,46,0.00,,,0.00,542.000000,,2013-06-17 00:01:00,
2013-06-16 17:11:00,71.0,49.0,-100.00,NW,320,7.0,16.0,46,0.00,,,0.00,542.000000,,2013-06-17 00:11:00,
2013-06-16 18:32:00,65.0,48.0,-100.00,WNW,299,9.0,20.0,54,-99.99,,,0.00,192.000000,,2013-06-17 01:32:00,
2013-06-16 18:43:00,65.0,48.0,-100.00,WNW,299,9.0,20.0,54,-99.99,,,0.00,192.000000,,2013-06-17 01:43:00,
2013-06-16 18:53:00,65.0,48.0,-100.00,WNW,299,9.0,20.0,54,-99.99,,,0.00,192.000000,,2013-06-17 01:53:00,
2013-06-16 19:02:00,65.0,48.0,-100.00,WNW,299,9.0,20.0,54,-99.99,,,0.00,192.000000,,2013-06-17 02:02:00,
2013-06-16 19:11:00,65.0,48.0,-100.00,WNW,299,9.0,20.0,54,-99.99,,,0.00,192.000000,,2013-06-17 02:11:00,
2013-06-16 19:34:00,64.0,45.0,-100.00,WNW,303,8.0,18.0,50,0.00,,,0.00,140.000000,,2013-06-17 02:34:00,
2013-06-16 19:43:00,64.0,45.0,-100.00,WNW,303,8.0,18.0,50,0.00,,,0.00,140.000000,,2013-06-17 02:43:00,
2013-06-16 19:53:00,64.0,45.0,-100.00,WNW,303,8.0,18.0,50,0.00,,,0.00,140.000000,,2013-06-17 02:53:00,
2013-06-16 20:02:00,64.0,45.0,-100.00,WNW,303,8.0,18.0,50,0.00,,,0.00,140.000000,,2013-06-17 03:02:00,
2013-06-16 20:11:00,64.0,45.0,-100.00,WNW,303,8.0,18.0,50,0.00,,,0.00,140.000000,,2013-06-17 03:11:00,
2013-06-16 20:33:00,61.0,44.0,-100.00,NW,304,8.0,15.0,54,0.00,,,0.00,34.000000,,2013-06-17 03:33:00,
2013-06-16 20:44:00,61.0,44.0,-100.00,NW,304,8.0,15.0,54,0.00,,,0.00,34.000000,,2013-06-17 03:44:00,
2013-06-16 20:54:00,61.0,44.0,-100.00,NW,304,8.0,15.0,54,0.00,,,0.00,34.000000,,2013-06-17 03:54:00,
2013-06-16 21:02:00,61.0,44.0,-100.00,NW,304,8.0,15.0,54,0.00,,,0.00,34.000000,,2013-06-17 04:02:00,
2013-06-16 21:12:00,61.0,44.0,-100.00,NW,304,8.0,15.0,54,0.00,,,0.00,34.000000,,2013-06-17 04:12:00,
2013-06-16 21:43:00,60.0,45.0,-100.00,NW,318,5.0,17.0,58,0.00,,,0.00,7.000000,,2013-06-17 04:43:00,
2013-06-16 21:53:00,60.0,45.0,-100.00,NW,318,5.0,17.0,58,0.00,,,0.00,7.000000,,2013-06-17 04:53:00,
2013-06-16 22:02:00,60.0,45.0,-100.00,NW,318,5.0,17.0,58,0.00,,,0.00,7.000000,,2013-06-17 05:02:00,
2013-06-16 22:11:00,60.0,45.0,-100.00,NW,318,5.0,17.0,58,0.00,,,0.00,7.000000,,2013-06-17 05:11:00,
2013-06-16 22:33:00,59.0,46.0,-100.00,West,279,8.0,21.0,61,0.00,,,0.00,0.000000,,2013-06-17 05:33:00,
2013-06-16 22:44:00,59.0,46.0,-100.00,West,279,8.0,21.0,61,0.00,,,0.00,0.000000,,2013-06-17 05:44:00,
2013-06-16 22:53:00,59.0,46.0,-100.00,West,279,8.0,21.0,61,0.00,,,0.00,0.000000,,2013-06-17 05:53:00,
2013-06-16 23:02:00,59.0,46.0,-100.00,West,279,8.0,21.0,61,0.00,,,0.00,0.000000,,2013-06-17 06:02:00,
2013-06-16 23:12:00,59.0,46.0,-100.00,West,279,8.0,21.0,61,0.00,,,0.00,0.000000,,2013-06-17 06:12:00,
2013-06-16 23:43:00,58.0,48.0,-100.00,WNW,287,6.0,14.0,69,0.00,,,0.00,0.000000,,2013-06-17 06:43:00,
2013-06-16 23:53:00,58.0,48.0,-100.00,WNW,287,6.0,14.0,69,0.00,,,0.00,0.000000,,2013-06-17 06:53:00,